Location: *
(55.6049°S, 142.1985°W)
Time: 09:56:03
(UTC+00:00)

Cosmos 1140 Rocket - Pass Details

Date: 12 May 2021
Orbit: 744 x 768 km, 74.1° (Epoch: 13 June)

Event Time Altitude Azimuth Distance (km) Brightness Sun altitude
Rises 16:02:43 0° 301° (WNW) 3,250 6.4 -9.9°
Reaches altitude 10° 16:05:19 10° 291° (WNW) 2,327 5.5 -9.5°
Maximum altitude 16:10:06 34° 227° (SW) 1,278 4.2 -8.9°
Drops below altitude 10° 16:14:54 10° 162° (SSE) 2,333 6.0 -8.3°
Sets 16:17:31 0° 152° (SSE) 3,260 6.9 -7.9°
